Time,TemperatureF,DewpointF,PressureIn,WindDirection,WindDirectionDegrees,WindSpeedMPH,WindSpeedGustMPH,Humidity,HourlyPrecipIn,Conditions,Clouds,dailyrainin,SoftwareType,DateUTC
2013-10-07 00:00:00,54.3,47.6,29.81,North,11,0.0,0.0,78,0.00,,OVC050,0.00,VWS V14.01,2013-10-07 05:00:00,
2013-10-07 00:05:00,54.3,47.9,29.81,NW,318,0.0,0.0,79,0.00,,OVC050,0.00,VWS V14.01,2013-10-07 05:05:00,
2013-10-07 00:11:00,54.3,47.6,29.81,NNW,338,0.0,3.0,78,0.00,,OVC050,0.00,VWS V14.01,2013-10-07 05:11:00,
2013-10-07 00:16:00,54.3,47.6,29.81,NNE,22,2.0,8.0,78,0.00,,OVC050,0.00,VWS V14.01,2013-10-07 05:16:00,
2013-10-07 00:21:00,54.6,47.5,29.82,West,277,1.0,8.0,77,0.00,,OVC050,0.00,VWS V14.01,2013-10-07 05:21:00,
2013-10-07 00:26:00,54.8,47.7,29.82,NNW,344,1.0,8.0,77,0.00,,OVC050,0.00,VWS V14.01,2013-10-07 05:26:00,
2013-10-07 00:30:00,54.8,47.4,29.82,WNW,288,1.0,8.0,76,0.00,,RA,0.00,VWS V14.01,2013-10-07 05:30:00,
2013-10-07 00:31:00,54.9,47.5,29.82,WNW,286,0.0,2.0,76,0.00,,OVC050,0.00,VWS V14.01,2013-10-07 05:31:00,
2013-10-07 00:36:00,55.0,47.6,29.82,North,360,3.0,5.0,76,0.00,,OVC050,0.00,VWS V14.01,2013-10-07 05:36:00,
2013-10-07 00:41:00,55.0,47.6,29.82,NW,309,0.0,8.0,76,0.00,,OVC050,0.00,VWS V14.01,2013-10-07 05:41:00,
2013-10-07 00:46:00,55.1,47.7,29.82,North,355,2.0,8.0,76,0.00,,OVC050,0.00,VWS V14.01,2013-10-07 05:46:00,
2013-10-07 00:51:00,55.1,47.7,29.82,West,277,0.0,8.0,76,0.00,,OVC050,0.00,VWS V14.01,2013-10-07 05:51:00,
2013-10-07 00:56:00,55.1,47.3,29.82,North,355,0.0,8.0,75,0.00,,OVC050,0.00,VWS V14.01,2013-10-07 05:56:00,
2013-10-07 01:00:00,55.2,47.4,29.82,WNW,303,1.0,8.0,75,0.00,,RA,0.00,VWS V14.01,2013-10-07 06:00:00,
2013-10-07 01:01:00,55.3,47.5,29.82,WNW,289,0.0,5.0,75,0.00,,OVC050,0.00,VWS V14.01,2013-10-07 06:01:00,
2013-10-07 01:07:00,55.2,47.8,29.82,NW,312,0.0,5.0,76,0.00,,OVC050,0.00,VWS V14.01,2013-10-07 06:07:00,
2013-10-07 01:12:00,55.1,47.7,29.82,NW,315,0.0,5.0,76,0.00,,OVC050,0.00,VWS V14.01,2013-10-07 06:12:00,
2013-10-07 01:17:00,55.0,47.6,29.81,WNW,300,0.0,5.0,76,0.00,,OVC050,0.00,VWS V14.01,2013-10-07 06:17:00,
2013-10-07 01:22:00,54.8,47.7,29.82,NW,321,0.0,5.0,77,0.00,,OVC050,0.00,VWS V14.01,2013-10-07 06:22:00,
2013-10-07 01:27:00,54.7,47.6,29.82,WNW,302,0.0,5.0,77,0.00,,OVC050,0.00,VWS V14.01,2013-10-07 06:27:00,
2013-10-07 01:30:00,54.6,47.5,29.82,NW,323,2.0,5.0,77,0.00,,RA,0.00,VWS V14.01,2013-10-07 06:30:00,
2013-10-07 01:32:00,54.6,47.9,29.82,WNW,294,0.0,2.0,78,0.00,,OVC050,0.00,VWS V14.01,2013-10-07 06:32:00,
2013-10-07 01:37:00,54.4,47.7,29.82,West,267,0.0,2.0,78,0.00,,OVC050,0.00,VWS V14.01,2013-10-07 06:37:00,
2013-10-07 01:42:00,54.2,47.5,29.83,NW,323,1.0,2.0,78,0.00,,OVC050,0.00,VWS V14.01,2013-10-07 06:42:00,
2013-10-07 01:47:00,54.1,47.7,29.83,NW,309,1.0,4.0,79,0.00,,OVC050,0.00,VWS V14.01,2013-10-07 06:47:00,
2013-10-07 01:52:00,53.9,47.5,29.83,NW,321,1.0,5.0,79,0.00,,OVC050,0.00,VWS V14.01,2013-10-07 06:52:00,
2013-10-07 01:58:00,53.7,47.3,29.83,West,260,0.0,5.0,79,0.00,,OVC050,0.00,VWS V14.01,2013-10-07 06:58:00,
2013-10-07 02:00:00,53.7,47.3,29.83,NW,324,0.0,5.0,79,0.00,,RA,0.00,VWS V14.01,2013-10-07 07:00:00,
2013-10-07 02:03:00,53.7,47.3,29.83,NW,317,0.0,4.0,79,0.00,,OVC050,0.00,VWS V14.01,2013-10-07 07:03:00,
2013-10-07 02:08:00,53.6,47.3,29.83,WNW,292,2.0,5.0,79,0.00,,OVC050,0.00,VWS V14.01,2013-10-07 07:08:00,
2013-10-07 02:13:00,53.6,47.6,29.83,NNW,327,1.0,5.0,80,0.00,,OVC050,0.00,VWS V14.01,2013-10-07 07:13:00,
2013-10-07 02:18:00,53.6,47.3,29.83,NNW,340,5.0,6.0,79,0.00,,OVC050,0.00,VWS V14.01,2013-10-07 07:18:00,
2013-10-07 02:23:00,53.7,47.3,29.83,WNW,289,0.0,9.0,79,0.00,,OVC050,0.00,VWS V14.01,2013-10-07 07:23:00,
2013-10-07 02:28:00,53.8,47.5,29.83,NW,309,5.0,10.0,79,0.00,,OVC050,0.00,VWS V14.01,2013-10-07 07:28:00,
2013-10-07 02:30:00,53.7,47.0,29.83,NNW,341,0.0,10.0,78,0.00,,RA,0.00,VWS V14.01,2013-10-07 07:30:00,
2013-10-07 02:33:00,53.8,47.1,29.83,NW,323,2.0,6.0,78,0.00,,OVC050,0.00,VWS V14.01,2013-10-07 07:33:00,
2013-10-07 02:38:00,53.7,47.0,29.83,NNW,329,3.0,7.0,78,0.00,,OVC050,0.00,VWS V14.01,2013-10-07 07:38:00,
2013-10-07 02:43:00,53.7,47.0,29.83,North,349,2.0,7.0,78,0.00,,OVC050,0.00,VWS V14.01,2013-10-07 07:43:00,
2013-10-07 02:48:00,53.5,47.2,29.83,West,273,1.0,7.0,79,0.00,,OVC050,0.00,VWS V14.01,2013-10-07 07:48:00,
2013-10-07 02:54:00,53.4,47.1,29.83,NNW,329,3.0,7.0,79,0.00,,OVC050,0.00,VWS V14.01,2013-10-07 07:54:00,
2013-10-07 02:59:00,53.2,46.9,29.83,NNW,328,1.0,7.0,79,0.00,,OVC050,0.00,VWS V14.01,2013-10-07 07:59:00,
2013-10-07 03:00:00,53.2,46.9,29.83,NNW,327,2.0,7.0,79,0.00,,RA,0.00,VWS V14.01,2013-10-07 08:00:00,
2013-10-07 03:04:00,53.0,46.7,29.83,NW,317,1.0,8.0,79,0.00,,OVC050,0.00,VWS V14.01,2013-10-07 08:04:00,
2013-10-07 03:09:00,52.9,46.6,29.83,West,277,1.0,9.0,79,0.00,,OVC050,0.00,VWS V14.01,2013-10-07 08:09:00,
2013-10-07 03:14:00,52.8,46.8,29.82,NW,304,1.0,9.0,80,0.00,,OVC050,0.00,VWS V14.01,2013-10-07 08:14:00,
2013-10-07 03:19:00,52.7,46.7,29.82,WNW,294,1.0,9.0,80,0.00,,OVC050,0.00,VWS V14.01,2013-10-07 08:19:00,
2013-10-07 03:24:00,52.5,46.5,29.83,NW,319,3.0,9.0,80,0.00,,OVC050,0.00,VWS V14.01,2013-10-07 08:24:00,
2013-10-07 03:29:00,52.4,46.4,29.83,North,350,6.0,6.0,80,0.00,,OVC050,0.00,VWS V14.01,2013-10-07 08:29:00,
2013-10-07 03:30:00,52.4,46.4,29.83,NW,314,4.0,9.0,80,0.00,,RA,0.00,VWS V14.01,2013-10-07 08:30:00,
2013-10-07 03:34:00,52.3,46.7,29.83,NNW,338,4.0,6.0,81,0.00,,OVC050,0.00,VWS V14.01,2013-10-07 08:34:00,
2013-10-07 03:39:00,52.2,46.5,29.83,WNW,299,2.0,6.0,81,0.00,,OVC050,0.00,VWS V14.01,2013-10-07 08:39:00,
2013-10-07 03:44:00,52.1,46.5,29.83,WNW,298,4.0,7.0,81,0.00,,OVC050,0.00,VWS V14.01,2013-10-07 08:44:00,
2013-10-07 03:50:00,52.0,46.4,29.83,NW,313,3.0,7.0,81,0.00,,OVC050,0.00,VWS V14.01,2013-10-07 08:50:00,
2013-10-07 03:55:00,51.9,46.3,29.83,WNW,288,1.0,7.0,81,0.00,,OVC050,0.00,VWS V14.01,2013-10-07 08:55:00,
2013-10-07 04:00:00,51.9,46.3,29.83,NW,313,4.0,6.0,81,0.00,,OVC050,0.00,VWS V14.01,2013-10-07 09:00:00,
2013-10-07 04:05:00,51.8,46.2,29.83,NW,322,0.0,6.0,81,0.00,,OVC050,0.00,VWS V14.01,2013-10-07 09:05:00,
2013-10-07 04:10:00,51.8,46.2,29.83,WNW,295,2.0,7.0,81,0.00,,OVC050,0.00,VWS V14.01,2013-10-07 09:10:00,
2013-10-07 04:15:00,51.7,46.1,29.83,NW,319,3.0,8.0,81,0.00,,OVC050,0.00,VWS V14.01,2013-10-07 09:15:00,
2013-10-07 04:20:00,51.7,46.1,29.84,WNW,300,3.0,8.0,81,0.00,,OVC050,0.00,VWS V14.01,2013-10-07 09:20:00,
2013-10-07 04:25:00,51.7,46.1,29.84,NW,317,4.0,8.0,81,0.00,,OVC050,0.00,VWS V14.01,2013-10-07 09:25:00,
2013-10-07 04:30:00,51.7,45.7,29.84,WNW,300,1.0,4.0,80,0.00,,OVC050,0.00,VWS V14.01,2013-10-07 09:30:00,
2013-10-07 04:35:00,51.7,45.7,29.84,WNW,294,0.0,5.0,80,0.00,,OVC050,0.00,VWS V14.01,2013-10-07 09:35:00,
2013-10-07 04:40:00,51.5,45.9,29.85,NW,323,1.0,5.0,81,0.00,,OVC050,0.00,VWS V14.01,2013-10-07 09:40:00,
2013-10-07 04:45:00,51.3,46.0,29.85,NNW,330,1.0,5.0,82,0.00,,OVC050,0.00,VWS V14.01,2013-10-07 09:45:00,
2013-10-07 04:51:00,51.1,45.8,29.85,WNW,299,0.0,5.0,82,0.00,,OVC050,0.00,VWS V14.01,2013-10-07 09:51:00,
2013-10-07 04:56:00,50.9,45.9,29.85,NW,311,0.0,5.0,83,0.00,,OVC050,0.00,VWS V14.01,2013-10-07 09:56:00,
2013-10-07 05:00:00,50.8,45.8,29.85,NW,323,0.0,5.0,83,0.00,,RA,0.00,VWS V14.01,2013-10-07 10:00:00,
2013-10-07 05:01:00,50.7,46.0,29.85,NW,325,1.0,2.0,84,0.00,,OVC050,0.00,VWS V14.01,2013-10-07 10:01:00,
2013-10-07 05:06:00,50.5,45.8,29.85,NW,321,3.0,4.0,84,0.00,,OVC050,0.00,VWS V14.01,2013-10-07 10:06:00,
2013-10-07 05:11:00,50.4,45.8,29.85,WNW,300,0.0,4.0,84,0.00,,OVC050,0.00,VWS V14.01,2013-10-07 10:11:00,
2013-10-07 05:16:00,50.3,45.7,29.86,NW,320,1.0,5.0,84,0.00,,OVC050,0.00,VWS V14.01,2013-10-07 10:16:00,
2013-10-07 05:21:00,50.3,45.7,29.86,NW,312,0.0,5.0,84,0.00,,OVC050,0.00,VWS V14.01,2013-10-07 10:21:00,
2013-10-07 05:26:00,50.2,45.6,29.86,North,355,0.0,5.0,84,0.00,,OVC050,0.00,VWS V14.01,2013-10-07 10:26:00,
2013-10-07 05:30:00,50.1,45.5,29.86,NNW,346,0.0,5.0,84,0.00,,RA,0.00,VWS V14.01,2013-10-07 10:30:00,
2013-10-07 05:31:00,50.0,45.7,29.86,NW,306,0.0,2.0,85,0.00,,OVC050,0.00,VWS V14.01,2013-10-07 10:31:00,
2013-10-07 05:36:00,49.9,45.6,29.86,NW,319,2.0,2.0,85,0.00,,OVC050,0.00,VWS V14.01,2013-10-07 10:36:00,
2013-10-07 05:42:00,49.7,45.7,29.86,NW,321,1.0,3.0,86,0.00,,OVC050,0.00,VWS V14.01,2013-10-07 10:42:00,
2013-10-07 05:47:00,49.6,45.6,29.86,NNW,336,0.0,3.0,86,0.00,,OVC050,0.00,VWS V14.01,2013-10-07 10:47:00,
2013-10-07 05:52:00,49.5,45.5,29.87,NNW,338,0.0,3.0,86,0.00,,OVC050,0.00,VWS V14.01,2013-10-07 10:52:00,
2013-10-07 05:57:00,49.4,45.7,29.87,NNW,338,0.0,3.0,87,0.00,,OVC050,0.00,VWS V14.01,2013-10-07 10:57:00,
2013-10-07 06:00:00,49.3,45.6,29.87,NNW,338,0.0,3.0,87,0.00,,RA,0.00,VWS V14.01,2013-10-07 11:00:00,
2013-10-07 06:02:00,49.2,45.5,29.87,NNW,338,0.0,1.0,87,0.00,,OVC050,0.00,VWS V14.01,2013-10-07 11:02:00,
2013-10-07 06:07:00,49.1,45.4,29.87,NNW,338,0.0,1.0,87,0.00,,OVC050,0.00,VWS V14.01,2013-10-07 11:07:00,
2013-10-07 06:12:00,49.0,45.6,29.87,NNW,338,0.0,1.0,88,0.00,,OVC050,0.00,VWS V14.01,2013-10-07 11:12:00,
2013-10-07 06:17:00,48.8,45.4,29.87,NNW,338,0.0,1.0,88,0.00,,OVC050,0.00,VWS V14.01,2013-10-07 11:17:00,
2013-10-07 06:22:00,48.7,45.3,29.87,NNW,338,0.0,1.0,88,0.00,,OVC050,0.00,VWS V14.01,2013-10-07 11:22:00,
2013-10-07 06:27:00,48.5,45.4,29.87,NNW,338,0.0,1.0,89,0.00,,OVC050,0.00,VWS V14.01,2013-10-07 11:27:00,
2013-10-07 06:30:00,48.5,45.4,29.87,NNW,338,0.0,1.0,89,0.00,,RA,0.00,VWS V14.01,2013-10-07 11:30:00,
2013-10-07 06:32:00,48.4,45.3,29.87,NNW,338,0.0,0.0,89,0.00,,OVC050,0.00,VWS V14.01,2013-10-07 11:32:00,
2013-10-07 06:38:00,48.2,45.1,29.88,NNW,338,0.0,0.0,89,0.00,,OVC050,0.00,VWS V14.01,2013-10-07 11:38:00,
2013-10-07 06:43:00,48.0,45.2,29.88,NNW,338,0.0,0.0,90,0.00,,OVC050,0.00,VWS V14.01,2013-10-07 11:43:00,
2013-10-07 06:48:00,47.8,45.3,29.88,NNW,338,0.0,0.0,91,0.00,,OVC050,0.00,VWS V14.01,2013-10-07 11:48:00,
2013-10-07 06:53:00,47.6,45.1,29.88,NNW,338,0.0,0.0,91,0.00,,OVC050,0.00,VWS V14.01,2013-10-07 11:53:00,
2013-10-07 06:58:00,47.5,45.3,29.88,NNW,338,0.0,0.0,92,0.00,,OVC050,0.00,VWS V14.01,2013-10-07 11:58:00,
2013-10-07 07:00:00,47.4,44.9,29.88,NNW,338,0.0,0.0,91,0.00,,RA,0.00,VWS V14.01,2013-10-07 12:00:00,
2013-10-07 07:03:00,47.4,45.2,29.88,NNW,338,0.0,0.0,92,0.00,,OVC050,0.00,VWS V14.01,2013-10-07 12:03:00,
2013-10-07 07:08:00,47.3,45.1,29.88,NW,326,0.0,2.0,92,0.00,,OVC050,0.00,VWS V14.01,2013-10-07 12:08:00,
2013-10-07 07:13:00,47.3,45.1,29.88,NW,323,0.0,2.0,92,0.00,,OVC050,0.00,VWS V14.01,2013-10-07 12:13:00,
2013-10-07 07:18:00,47.3,45.1,29.88,NNW,327,0.0,3.0,92,0.00,,OVC050,0.00,VWS V14.01,2013-10-07 12:18:00,
2013-10-07 07:23:00,47.3,45.4,29.88,NW,314,0.0,3.0,93,0.00,,OVC050,0.00,VWS V14.01,2013-10-07 12:23:00,
2013-10-07 07:28:00,47.4,45.5,29.88,NW,314,0.0,3.0,93,0.00,,OVC050,0.00,VWS V14.01,2013-10-07 12:28:00,
2013-10-07 07:30:00,47.4,45.5,29.88,NW,314,0.0,3.0,93,0.00,,RA,0.00,VWS V14.01,2013-10-07 12:30:00,
2013-10-07 07:34:00,47.5,45.3,29.89,NW,325,0.0,3.0,92,0.00,,OVC050,0.00,VWS V14.01,2013-10-07 12:34:00,
2013-10-07 07:39:00,47.6,45.4,29.89,NW,320,0.0,3.0,92,0.00,,OVC050,0.00,VWS V14.01,2013-10-07 12:39:00,
2013-10-07 07:44:00,47.8,45.6,29.89,NW,304,2.0,6.0,92,0.00,,OVC050,0.00,VWS V14.01,2013-10-07 12:44:00,
2013-10-07 07:49:00,48.0,45.8,29.89,NNW,329,2.0,6.0,92,0.00,,OVC050,0.00,VWS V14.01,2013-10-07 12:49:00,
2013-10-07 07:54:00,48.3,45.8,29.89,WNW,291,0.0,6.0,91,0.00,,OVC050,0.00,VWS V14.01,2013-10-07 12:54:00,
2013-10-07 07:59:00,48.7,45.9,29.89,NW,315,0.0,7.0,90,0.00,,OVC050,0.00,VWS V14.01,2013-10-07 12:59:00,
2013-10-07 08:00:00,48.7,45.9,29.89,NW,315,0.0,7.0,90,0.00,,RA,0.00,VWS V14.01,2013-10-07 13:00:00,
2013-10-07 08:04:00,49.2,46.4,29.90,NNW,336,0.0,6.0,90,0.00,,OVC050,0.00,VWS V14.01,2013-10-07 13:04:00,
2013-10-07 08:09:00,49.7,46.6,29.90,NW,315,0.0,6.0,89,0.00,,OVC050,0.00,VWS V14.01,2013-10-07 13:09:00,
2013-10-07 08:14:00,50.0,46.6,29.90,NW,309,2.0,7.0,88,0.00,,OVC050,0.00,VWS V14.01,2013-10-07 13:14:00,
2013-10-07 08:19:00,50.4,47.0,29.90,NW,322,0.0,7.0,88,0.00,,OVC050,0.00,VWS V14.01,2013-10-07 13:19:00,
2013-10-07 08:24:00,50.8,47.1,29.90,NNW,333,4.0,7.0,87,0.00,,OVC050,0.00,VWS V14.01,2013-10-07 13:24:00,
2013-10-07 08:29:00,51.3,47.3,29.91,NW,318,4.0,7.0,86,0.00,,OVC050,0.00,VWS V14.01,2013-10-07 13:29:00,
2013-10-07 08:30:00,51.3,47.3,29.91,NNW,342,7.0,9.0,86,0.00,,RA,0.00,VWS V14.01,2013-10-07 13:30:00,
2013-10-07 08:35:00,51.9,47.5,29.91,NNW,329,3.0,7.0,85,0.00,,OVC050,0.00,VWS V14.01,2013-10-07 13:35:00,
2013-10-07 08:40:00,52.3,47.6,29.91,WNW,290,1.0,7.0,84,0.00,,OVC050,0.00,VWS V14.01,2013-10-07 13:40:00,
2013-10-07 08:45:00,52.8,47.8,29.91,NW,325,5.0,7.0,83,0.00,,OVC050,0.00,VWS V14.01,2013-10-07 13:45:00,
2013-10-07 08:50:00,53.1,47.4,29.91,NW,308,8.0,10.0,81,0.00,,OVC050,0.00,VWS V14.01,2013-10-07 13:50:00,
2013-10-07 08:55:00,53.3,47.3,29.92,NNW,333,10.0,10.0,80,0.00,,OVC050,0.00,VWS V14.01,2013-10-07 13:55:00,
2013-10-07 09:00:00,53.5,47.5,29.92,NNW,338,8.0,8.0,80,0.00,,OVC050,0.00,VWS V14.01,2013-10-07 14:00:00,
2013-10-07 09:05:00,53.8,47.5,29.92,WNW,300,7.0,11.0,79,0.00,,OVC050,0.00,VWS V14.01,2013-10-07 14:05:00,
2013-10-07 09:10:00,54.1,48.1,29.92,WNW,291,4.0,11.0,80,0.00,,OVC050,0.00,VWS V14.01,2013-10-07 14:10:00,
2013-10-07 09:15:00,54.4,47.7,29.92,NW,313,3.0,11.0,78,0.00,,OVC050,0.00,VWS V14.01,2013-10-07 14:15:00,
2013-10-07 09:20:00,54.6,47.5,29.93,NNW,333,3.0,11.0,77,0.00,,OVC050,0.00,VWS V14.01,2013-10-07 14:20:00,
2013-10-07 09:25:00,54.8,47.4,29.93,NNW,338,1.0,11.0,76,0.00,,OVC050,0.00,VWS V14.01,2013-10-07 14:25:00,
2013-10-07 09:30:00,54.9,47.8,29.93,West,277,8.0,13.0,77,0.00,,RA,0.00,VWS V14.01,2013-10-07 14:30:00,
2013-10-07 09:31:00,55.0,47.6,29.93,NW,305,5.0,8.0,76,0.00,,OVC050,0.00,VWS V14.01,2013-10-07 14:31:00,
2013-10-07 09:36:00,55.3,48.2,29.93,WNW,295,3.0,8.0,77,0.00,,OVC050,0.00,VWS V14.01,2013-10-07 14:36:00,
2013-10-07 09:41:00,55.7,47.9,29.93,NNW,339,3.0,9.0,75,0.00,,OVC050,0.00,VWS V14.01,2013-10-07 14:41:00,
2013-10-07 09:46:00,56.0,47.8,29.94,NW,310,3.0,11.0,74,0.00,,OVC050,0.00,VWS V14.01,2013-10-07 14:46:00,
2013-10-07 09:51:00,56.2,48.0,29.94,NW,318,4.0,11.0,74,0.00,,OVC050,0.00,VWS V14.01,2013-10-07 14:51:00,
2013-10-07 09:56:00,56.4,48.2,29.94,NNE,13,2.0,11.0,74,0.00,,OVC050,0.00,VWS V14.01,2013-10-07 14:56:00,
2013-10-07 10:00:00,56.6,48.1,29.94,WNW,294,9.0,13.0,73,0.00,,RA,0.00,VWS V14.01,2013-10-07 15:00:00,
2013-10-07 10:01:00,56.7,48.2,29.94,NW,323,4.0,9.0,73,0.00,,OVC050,0.00,VWS V14.01,2013-10-07 15:01:00,
2013-10-07 10:06:00,56.7,48.9,29.94,North,5,1.0,13.0,75,0.00,,OVC050,0.00,VWS V14.01,2013-10-07 15:06:00,
2013-10-07 10:11:00,56.9,48.7,29.94,NW,313,0.0,13.0,74,0.00,,OVC050,0.00,VWS V14.01,2013-10-07 15:11:00,
2013-10-07 10:16:00,57.2,48.6,29.94,NNE,29,0.0,13.0,73,0.00,,OVC050,0.00,VWS V14.01,2013-10-07 15:16:00,
2013-10-07 10:21:00,57.5,48.9,29.94,NNW,346,1.0,13.0,73,0.00,,CLR,0.00,VWS V14.01,2013-10-07 15:21:00,
2013-10-07 10:27:00,57.5,48.2,29.94,WNW,294,2.0,13.0,71,0.00,,CLR,0.00,VWS V14.01,2013-10-07 15:27:00,
2013-10-07 10:30:00,57.5,48.6,29.94,North,355,5.0,13.0,72,0.00,,RA,0.00,VWS V14.01,2013-10-07 15:30:00,
2013-10-07 10:32:00,57.6,48.7,29.94,ENE,78,0.0,6.0,72,0.00,,CLR,0.00,VWS V14.01,2013-10-07 15:32:00,
2013-10-07 10:37:00,57.7,49.1,29.94,NNE,19,1.0,6.0,73,0.00,,CLR,0.00,VWS V14.01,2013-10-07 15:37:00,
2013-10-07 10:42:00,57.8,49.2,29.94,WNW,284,7.0,9.0,73,0.00,,CLR,0.00,VWS V14.01,2013-10-07 15:42:00,
2013-10-07 10:47:00,57.9,48.9,29.94,NW,315,4.0,9.0,72,0.00,,CLR,0.00,VWS V14.01,2013-10-07 15:47:00,
2013-10-07 10:52:00,58.2,49.2,29.94,NW,325,1.0,9.0,72,0.00,,CLR,0.00,VWS V14.01,2013-10-07 15:52:00,
2013-10-07 10:57:00,58.6,49.6,29.94,NW,305,2.0,9.0,72,0.00,,CLR,0.00,VWS V14.01,2013-10-07 15:57:00,
2013-10-07 11:00:00,58.7,50.1,29.94,NNE,33,1.0,9.0,73,0.00,,RA,0.00,VWS V14.01,2013-10-07 16:00:00,
2013-10-07 11:02:00,59.1,50.1,29.94,WNW,296,1.0,3.0,72,0.00,,CLR,0.00,VWS V14.01,2013-10-07 16:02:00,
2013-10-07 11:07:00,59.4,49.2,29.94,NNW,346,1.0,6.0,69,0.00,,CLR,0.00,VWS V14.01,2013-10-07 16:07:00,
2013-10-07 11:12:00,59.6,49.4,29.94,WNW,288,1.0,9.0,69,0.00,,CLR,0.00,VWS V14.01,2013-10-07 16:12:00,
2013-10-07 11:17:00,59.9,50.1,29.94,West,279,3.0,9.0,70,0.00,,CLR,0.00,VWS V14.01,2013-10-07 16:17:00,
2013-10-07 11:22:00,60.4,50.2,29.94,North,355,5.0,9.0,69,0.00,,CLR,0.00,VWS V14.01,2013-10-07 16:22:00,
2013-10-07 11:28:00,60.6,50.0,29.95,North,350,0.0,9.0,68,0.00,,CLR,0.00,VWS V14.01,2013-10-07 16:28:00,
2013-10-07 11:30:00,60.6,50.4,29.95,NNW,345,1.0,9.0,69,0.00,,RA,0.00,VWS V14.01,2013-10-07 16:30:00,
2013-10-07 11:33:00,60.8,50.2,29.95,NW,313,5.0,6.0,68,0.00,,CLR,0.00,VWS V14.01,2013-10-07 16:33:00,
2013-10-07 11:38:00,60.5,49.9,29.95,North,5,1.0,9.0,68,0.00,,CLR,0.00,VWS V14.01,2013-10-07 16:38:00,
2013-10-07 11:43:00,60.8,51.0,29.95,WNW,296,0.0,9.0,70,0.00,,FEW026,0.00,VWS V14.01,2013-10-07 16:43:00,
2013-10-07 11:48:00,61.4,51.2,29.95,SW,214,0.0,9.0,69,0.00,,FEW026,0.00,VWS V14.01,2013-10-07 16:48:00,
2013-10-07 11:53:00,61.8,50.7,29.94,NNE,32,0.0,9.0,67,0.00,,FEW026,0.00,VWS V14.01,2013-10-07 16:53:00,
2013-10-07 11:58:00,62.1,51.0,29.94,NNE,32,0.0,9.0,67,0.00,,FEW026,0.00,VWS V14.01,2013-10-07 16:58:00,
2013-10-07 12:00:00,62.1,51.0,29.94,NW,306,4.0,9.0,67,0.00,,RA,0.00,VWS V14.01,2013-10-07 17:00:00,
2013-10-07 12:03:00,62.3,50.4,29.94,West,275,5.0,7.0,65,0.00,,FEW026,0.00,VWS V14.01,2013-10-07 17:03:00,
2013-10-07 12:08:00,62.6,50.7,29.94,NE,48,1.0,7.0,65,0.00,,FEW026,0.00,VWS V14.01,2013-10-07 17:08:00,
2013-10-07 12:14:00,63.0,51.1,29.94,NE,38,2.0,7.0,65,0.00,,FEW026,0.00,VWS V14.01,2013-10-07 17:14:00,
2013-10-07 12:19:00,63.5,51.1,29.94,NNW,338,1.0,7.0,64,0.00,,FEW026,0.00,VWS V14.01,2013-10-07 17:19:00,
2013-10-07 12:24:00,63.7,52.1,29.94,NNE,14,1.0,7.0,66,0.00,,FEW026,0.00,VWS V14.01,2013-10-07 17:24:00,
2013-10-07 12:29:00,64.0,51.6,29.94,NW,304,0.0,7.0,64,0.00,,FEW026,0.00,VWS V14.01,2013-10-07 17:29:00,
2013-10-07 12:30:00,64.0,51.6,29.94,NW,304,0.0,7.0,64,0.00,,RA,0.00,VWS V14.01,2013-10-07 17:30:00,
2013-10-07 12:34:00,64.3,52.3,29.94,WNW,297,2.0,7.0,65,0.00,,FEW026,0.00,VWS V14.01,2013-10-07 17:34:00,
2013-10-07 12:39:00,64.7,51.8,29.94,NW,304,1.0,7.0,63,0.00,,FEW026,0.00,VWS V14.01,2013-10-07 17:39:00,
2013-10-07 12:44:00,64.9,52.0,29.94,WNW,302,0.0,7.0,63,0.00,,CLR,0.00,VWS V14.01,2013-10-07 17:44:00,
2013-10-07 12:49:00,65.0,51.7,29.94,North,360,7.0,7.0,62,0.00,,CLR,0.00,VWS V14.01,2013-10-07 17:49:00,
2013-10-07 12:54:00,64.9,50.2,29.93,NNW,347,1.0,7.0,59,0.00,,CLR,0.00,VWS V14.01,2013-10-07 17:54:00,
2013-10-07 12:59:00,65.0,51.2,29.93,NW,315,8.0,8.0,61,0.00,,CLR,0.00,VWS V14.01,2013-10-07 17:59:00,
2013-10-07 13:00:00,65.0,51.2,29.93,NW,309,2.0,7.0,61,0.00,,RA,0.00,VWS V14.01,2013-10-07 18:00:00,
2013-10-07 13:04:00,64.8,51.5,29.93,NNE,33,1.0,8.0,62,0.00,,CLR,0.00,VWS V14.01,2013-10-07 18:04:00,
2013-10-07 13:09:00,64.9,50.7,29.93,NNW,348,0.0,8.0,60,0.00,,CLR,0.00,VWS V14.01,2013-10-07 18:09:00,
2013-10-07 13:15:00,64.9,51.6,29.93,NNE,29,3.0,8.0,62,0.00,,CLR,0.00,VWS V14.01,2013-10-07 18:15:00,
2013-10-07 13:20:00,65.1,51.8,29.93,NNW,347,0.0,8.0,62,0.00,,CLR,0.00,VWS V14.01,2013-10-07 18:20:00,
2013-10-07 13:25:00,65.2,51.4,29.92,ENE,66,0.0,8.0,61,0.00,,CLR,0.00,VWS V14.01,2013-10-07 18:25:00,
2013-10-07 13:30:00,65.5,52.2,29.92,WNW,302,2.0,2.0,62,0.00,,CLR,0.00,VWS V14.01,2013-10-07 18:30:00,
2013-10-07 13:35:00,65.7,51.5,29.93,NW,306,4.0,6.0,60,0.00,,CLR,0.00,VWS V14.01,2013-10-07 18:35:00,
2013-10-07 13:40:00,65.6,50.4,29.93,North,355,1.0,7.0,58,0.00,,CLR,0.00,VWS V14.01,2013-10-07 18:40:00,
2013-10-07 13:45:00,65.6,50.9,29.92,NW,304,2.0,8.0,59,0.00,,CLR,0.00,VWS V14.01,2013-10-07 18:45:00,
2013-10-07 13:50:00,65.8,51.1,29.92,West,281,5.0,9.0,59,0.00,,CLR,0.00,VWS V14.01,2013-10-07 18:50:00,
2013-10-07 13:55:00,65.8,50.2,29.92,NW,322,2.0,9.0,57,0.00,,CLR,0.00,VWS V14.01,2013-10-07 18:55:00,
2013-10-07 14:00:00,65.9,50.7,29.92,ENE,57,0.0,1.0,58,0.00,,CLR,0.00,VWS V14.01,2013-10-07 19:00:00,
2013-10-07 14:06:00,66.1,49.5,29.92,NNW,327,6.0,7.0,55,0.00,,CLR,0.00,VWS V14.01,2013-10-07 19:06:00,
2013-10-07 14:11:00,66.2,51.0,29.92,NW,307,0.0,7.0,58,0.00,,CLR,0.00,VWS V14.01,2013-10-07 19:11:00,
2013-10-07 14:16:00,66.3,51.1,29.92,North,360,0.0,7.0,58,0.00,,CLR,0.00,VWS V14.01,2013-10-07 19:16:00,
2013-10-07 14:21:00,66.5,50.3,29.92,NE,51,0.0,7.0,56,0.00,,CLR,0.00,VWS V14.01,2013-10-07 19:21:00,
2013-10-07 14:26:00,66.4,48.8,29.92,NW,319,0.0,8.0,53,0.00,,CLR,0.00,VWS V14.01,2013-10-07 19:26:00,
2013-10-07 14:30:00,66.4,49.3,29.92,WNW,298,1.0,8.0,54,0.00,,RA,0.00,VWS V14.01,2013-10-07 19:30:00,
2013-10-07 14:31:00,66.4,48.3,29.92,NE,55,0.0,4.0,52,0.00,,CLR,0.00,VWS V14.01,2013-10-07 19:31:00,
2013-10-07 14:36:00,66.5,47.3,29.92,North,350,9.0,9.0,50,0.00,,CLR,0.00,VWS V14.01,2013-10-07 19:36:00,
2013-10-07 14:41:00,66.4,47.7,29.92,ENE,74,3.0,9.0,51,0.00,,CLR,0.00,VWS V14.01,2013-10-07 19:41:00,
2013-10-07 14:46:00,66.5,48.3,29.92,NE,34,0.0,9.0,52,0.00,,CLR,0.00,VWS V14.01,2013-10-07 19:46:00,
2013-10-07 14:51:00,66.6,47.9,29.92,NNE,32,0.0,9.0,51,0.00,,CLR,0.00,VWS V14.01,2013-10-07 19:51:00,
2013-10-07 14:56:00,66.7,48.0,29.92,SE,140,1.0,9.0,51,0.00,,CLR,0.00,VWS V14.01,2013-10-07 19:56:00,
2013-10-07 15:00:00,66.8,48.6,29.92,ENE,66,2.0,9.0,52,0.00,,RA,0.00,VWS V14.01,2013-10-07 20:00:00,
2013-10-07 15:02:00,66.8,48.6,29.92,ENE,65,2.0,6.0,52,0.00,,CLR,0.00,VWS V14.01,2013-10-07 20:02:00,
2013-10-07 15:07:00,67.0,49.8,29.92,WNW,288,1.0,6.0,54,0.00,,CLR,0.00,VWS V14.01,2013-10-07 20:07:00,
2013-10-07 15:12:00,67.1,48.9,29.92,NW,304,0.0,6.0,52,0.00,,CLR,0.00,VWS V14.01,2013-10-07 20:12:00,
2013-10-07 15:17:00,67.0,47.2,29.92,ENE,61,0.0,6.0,49,0.00,,CLR,0.00,VWS V14.01,2013-10-07 20:17:00,
2013-10-07 15:22:00,67.0,48.3,29.92,NE,46,3.0,6.0,51,0.00,,CLR,0.00,VWS V14.01,2013-10-07 20:22:00,
2013-10-07 15:27:00,67.1,48.9,29.92,NE,36,0.0,6.0,52,0.00,,CLR,0.00,VWS V14.01,2013-10-07 20:27:00,
2013-10-07 15:30:00,67.2,48.0,29.92,North,355,0.0,6.0,50,0.00,,RA,0.00,VWS V14.01,2013-10-07 20:30:00,
2013-10-07 15:32:00,67.2,47.4,29.92,North,5,1.0,5.0,49,0.00,,CLR,0.00,VWS V14.01,2013-10-07 20:32:00,
2013-10-07 15:37:00,67.1,48.4,29.92,East,86,1.0,5.0,51,0.00,,CLR,0.00,VWS V14.01,2013-10-07 20:37:00,
2013-10-07 15:42:00,67.1,48.4,29.92,East,101,5.0,7.0,51,0.00,,CLR,0.00,VWS V14.01,2013-10-07 20:42:00,
2013-10-07 15:47:00,67.2,47.4,29.92,NNE,13,0.0,7.0,49,0.00,,CLR,0.00,VWS V14.01,2013-10-07 20:47:00,
2013-10-07 15:52:00,67.2,48.5,29.91,NE,46,0.0,7.0,51,0.00,,CLR,0.00,VWS V14.01,2013-10-07 20:52:00,
2013-10-07 15:58:00,67.2,48.0,29.91,East,86,0.0,7.0,50,0.00,,CLR,0.00,VWS V14.01,2013-10-07 20:58:00,
2013-10-07 16:00:00,67.2,48.5,29.92,NNE,13,3.0,7.0,51,0.00,,RA,0.00,VWS V14.01,2013-10-07 21:00:00,
2013-10-07 16:03:00,67.3,47.5,29.91,NE,43,1.0,6.0,49,0.00,,CLR,0.00,VWS V14.01,2013-10-07 21:03:00,
2013-10-07 16:08:00,67.3,47.5,29.91,ENE,75,2.0,6.0,49,0.00,,CLR,0.00,VWS V14.01,2013-10-07 21:08:00,
2013-10-07 16:13:00,67.2,47.4,29.91,West,279,3.0,6.0,49,0.00,,CLR,0.00,VWS V14.01,2013-10-07 21:13:00,
2013-10-07 16:18:00,67.1,47.3,29.92,NE,44,1.0,6.0,49,0.00,,CLR,0.00,VWS V14.01,2013-10-07 21:18:00,
2013-10-07 16:23:00,67.1,46.8,29.92,WNW,293,4.0,6.0,48,0.00,,CLR,0.00,VWS V14.01,2013-10-07 21:23:00,
2013-10-07 16:28:00,67.0,46.7,29.91,NNW,329,0.0,7.0,48,0.00,,CLR,0.00,VWS V14.01,2013-10-07 21:28:00,
2013-10-07 16:30:00,67.0,47.8,29.91,NE,45,1.0,7.0,50,0.00,,RA,0.00,VWS V14.01,2013-10-07 21:30:00,
2013-10-07 16:33:00,66.9,47.1,29.91,WNW,296,0.0,2.0,49,0.00,,CLR,0.00,VWS V14.01,2013-10-07 21:33:00,
2013-10-07 16:38:00,66.9,47.7,29.91,East,84,0.0,5.0,50,0.00,,CLR,0.00,VWS V14.01,2013-10-07 21:38:00,
2013-10-07 16:43:00,66.8,48.1,29.91,North,355,2.0,5.0,51,0.00,,CLR,0.00,VWS V14.01,2013-10-07 21:43:00,
2013-10-07 16:48:00,66.8,47.6,29.91,WSW,247,1.0,5.0,50,0.00,,CLR,0.00,VWS V14.01,2013-10-07 21:48:00,
2013-10-07 16:53:00,66.7,47.0,29.91,NNE,32,0.0,5.0,49,0.00,,CLR,0.00,VWS V14.01,2013-10-07 21:53:00,
2013-10-07 16:59:00,66.7,48.0,29.91,WNW,302,0.0,5.0,51,0.00,,CLR,0.00,VWS V14.01,2013-10-07 21:59:00,
2013-10-07 17:00:00,66.6,47.4,29.91,North,360,0.0,5.0,50,0.00,,RA,0.00,VWS V14.01,2013-10-07 22:00:00,
2013-10-07 17:04:00,66.6,47.4,29.91,ENE,65,3.0,4.0,50,0.00,,CLR,0.00,VWS V14.01,2013-10-07 22:04:00,
2013-10-07 17:09:00,66.5,47.8,29.91,WNW,297,2.0,4.0,51,0.00,,CLR,0.00,VWS V14.01,2013-10-07 22:09:00,
2013-10-07 17:14:00,66.5,47.3,29.91,NW,313,0.0,4.0,50,0.00,,CLR,0.00,VWS V14.01,2013-10-07 22:14:00,
2013-10-07 17:19:00,66.4,48.3,29.91,NNE,29,0.0,5.0,52,0.00,,CLR,0.00,VWS V14.01,2013-10-07 22:19:00,
2013-10-07 17:24:00,66.3,48.2,29.91,NE,51,0.0,5.0,52,0.00,,CLR,0.00,VWS V14.01,2013-10-07 22:24:00,
2013-10-07 17:29:00,66.2,48.1,29.91,NNE,25,0.0,0.0,52,0.00,,CLR,0.00,VWS V14.01,2013-10-07 22:29:00,
2013-10-07 17:30:00,66.2,48.1,29.91,NNE,25,0.0,5.0,52,0.00,,RA,0.00,VWS V14.01,2013-10-07 22:30:00,
2013-10-07 17:34:00,66.0,48.4,29.91,NE,36,0.0,6.0,53,0.00,,CLR,0.00,VWS V14.01,2013-10-07 22:34:00,
2013-10-07 17:39:00,65.9,47.8,29.91,ENE,63,0.0,6.0,52,0.00,,CLR,0.00,VWS V14.01,2013-10-07 22:39:00,
2013-10-07 17:44:00,65.8,48.7,29.91,ESE,117,0.0,6.0,54,0.00,,CLR,0.00,VWS V14.01,2013-10-07 22:44:00,
2013-10-07 17:49:00,65.6,49.0,29.91,ENE,78,0.0,6.0,55,0.00,,CLR,0.00,VWS V14.01,2013-10-07 22:49:00,
2013-10-07 17:54:00,65.3,50.2,29.91,ENE,76,0.0,6.0,58,0.00,,CLR,0.00,VWS V14.01,2013-10-07 22:54:00,
2013-10-07 18:00:00,65.0,49.9,29.91,ENE,69,0.0,0.0,58,0.00,,CLR,0.00,VWS V14.01,2013-10-07 23:00:00,
2013-10-07 18:05:00,64.7,50.1,29.92,ENE,69,0.0,0.0,59,0.00,,CLR,0.00,VWS V14.01,2013-10-07 23:05:00,
2013-10-07 18:10:00,64.4,51.1,29.91,ENE,69,0.0,0.0,62,0.00,,CLR,0.00,VWS V14.01,2013-10-07 23:10:00,
2013-10-07 18:15:00,64.0,50.7,29.92,ENE,69,0.0,0.0,62,0.00,,CLR,0.00,VWS V14.01,2013-10-07 23:15:00,
2013-10-07 18:20:00,63.7,50.9,29.92,ENE,69,0.0,0.0,63,0.00,,CLR,0.00,VWS V14.01,2013-10-07 23:20:00,
2013-10-07 18:25:00,63.3,50.9,29.91,ENE,69,0.0,0.0,64,0.00,,CLR,0.00,VWS V14.01,2013-10-07 23:25:00,
2013-10-07 18:30:00,62.9,51.4,29.91,ENE,69,0.0,0.0,66,0.00,,CLR,0.00,VWS V14.01,2013-10-07 23:30:00,
2013-10-07 18:35:00,62.5,51.8,29.92,ENE,69,0.0,0.0,68,0.00,,CLR,0.00,VWS V14.01,2013-10-07 23:35:00,
2013-10-07 18:40:00,62.1,51.8,29.92,ENE,69,0.0,0.0,69,0.00,,CLR,0.00,VWS V14.01,2013-10-07 23:40:00,
2013-10-07 18:45:00,61.7,51.8,29.92,ENE,69,0.0,0.0,70,0.00,,CLR,0.00,VWS V14.01,2013-10-07 23:45:00,
2013-10-07 18:50:00,61.3,51.5,29.92,ENE,69,0.0,0.0,70,0.00,,CLR,0.00,VWS V14.01,2013-10-07 23:50:00,
2013-10-07 18:55:00,60.9,51.1,29.92,ENE,69,0.0,0.0,70,0.00,,CLR,0.00,VWS V14.01,2013-10-07 23:55:00,
2013-10-07 19:00:00,60.6,50.8,29.92,ENE,69,0.0,0.0,70,0.00,,RA,0.00,VWS V14.01,2013-10-08 00:00:00,
2013-10-07 19:01:00,60.5,51.4,29.92,ENE,69,0.0,0.0,72,0.00,,CLR,0.00,VWS V14.01,2013-10-08 00:01:00,
2013-10-07 19:06:00,60.1,51.1,29.92,ENE,69,0.0,0.0,72,0.00,,CLR,0.00,VWS V14.01,2013-10-08 00:06:00,
2013-10-07 19:11:00,59.7,50.7,29.92,ENE,69,0.0,0.0,72,0.00,,CLR,0.00,VWS V14.01,2013-10-08 00:11:00,
2013-10-07 19:16:00,59.4,50.8,29.92,ENE,69,0.0,0.0,73,0.00,,CLR,0.00,VWS V14.01,2013-10-08 00:16:00,
2013-10-07 19:21:00,59.1,50.5,29.92,ENE,69,0.0,0.0,73,0.00,,CLR,0.00,VWS V14.01,2013-10-08 00:21:00,
2013-10-07 19:26:00,58.9,50.3,29.92,ENE,69,0.0,0.0,73,0.00,,CLR,0.00,VWS V14.01,2013-10-08 00:26:00,
2013-10-07 19:30:00,58.7,50.5,29.92,ENE,69,0.0,0.0,74,0.00,,RA,0.00,VWS V14.01,2013-10-08 00:30:00,
2013-10-07 19:31:00,58.7,50.1,29.92,ENE,69,0.0,0.0,73,0.00,,CLR,0.00,VWS V14.01,2013-10-08 00:31:00,
2013-10-07 19:36:00,58.5,49.9,29.93,ENE,69,0.0,0.0,73,0.00,,CLR,0.00,VWS V14.01,2013-10-08 00:36:00,
2013-10-07 19:41:00,58.4,49.8,29.93,ENE,69,0.0,0.0,73,0.00,,CLR,0.00,VWS V14.01,2013-10-08 00:41:00,
2013-10-07 19:46:00,58.2,49.6,29.93,ENE,69,0.0,0.0,73,0.00,,CLR,0.00,VWS V14.01,2013-10-08 00:46:00,
2013-10-07 19:51:00,58.1,49.9,29.93,ENE,69,0.0,0.0,74,0.00,,CLR,0.00,VWS V14.01,2013-10-08 00:51:00,
2013-10-07 19:57:00,57.9,49.3,29.93,ENE,69,0.0,0.0,73,0.00,,CLR,0.00,VWS V14.01,2013-10-08 00:57:00,
2013-10-07 20:00:00,57.9,49.7,29.93,ENE,69,0.0,0.0,74,0.00,,RA,0.00,VWS V14.01,2013-10-08 01:00:00,
2013-10-07 20:02:00,57.8,49.9,29.93,ENE,69,0.0,0.0,75,0.00,,CLR,0.00,VWS V14.01,2013-10-08 01:02:00,
2013-10-07 20:07:00,57.7,49.8,29.94,ENE,69,0.0,0.0,75,0.00,,CLR,0.00,VWS V14.01,2013-10-08 01:07:00,
2013-10-07 20:12:00,57.6,49.4,29.94,North,10,0.0,1.0,74,0.00,,CLR,0.00,VWS V14.01,2013-10-08 01:12:00,
2013-10-07 20:17:00,57.5,49.7,29.94,North,10,0.0,1.0,75,0.00,,CLR,0.00,VWS V14.01,2013-10-08 01:17:00,
2013-10-07 20:22:00,57.4,49.5,29.94,North,10,0.0,1.0,75,0.00,,CLR,0.00,VWS V14.01,2013-10-08 01:22:00,
2013-10-07 20:27:00,57.3,49.1,29.94,North,10,0.0,1.0,74,0.00,,CLR,0.00,VWS V14.01,2013-10-08 01:27:00,
2013-10-07 20:30:00,57.3,49.1,29.94,North,10,0.0,1.0,74,0.00,,RA,0.00,VWS V14.01,2013-10-08 01:30:00,
2013-10-07 20:32:00,57.2,49.0,29.94,North,10,0.0,0.0,74,0.00,,CLR,0.00,VWS V14.01,2013-10-08 01:32:00,
2013-10-07 20:37:00,57.2,49.0,29.95,North,10,0.0,0.0,74,0.00,,CLR,0.00,VWS V14.01,2013-10-08 01:37:00,
2013-10-07 20:42:00,57.1,49.3,29.95,North,10,0.0,0.0,75,0.00,,CLR,0.00,VWS V14.01,2013-10-08 01:42:00,
2013-10-07 20:47:00,57.1,49.6,29.95,North,10,0.0,0.0,76,0.00,,CLR,0.00,VWS V14.01,2013-10-08 01:47:00,
2013-10-07 20:53:00,57.0,49.5,29.95,North,10,0.0,0.0,76,0.00,,CLR,0.00,VWS V14.01,2013-10-08 01:53:00,
2013-10-07 20:58:00,56.9,49.4,29.95,North,10,0.0,0.0,76,0.00,,CLR,0.00,VWS V14.01,2013-10-08 01:58:00,
2013-10-07 21:00:00,56.9,49.4,29.95,North,10,0.0,0.0,76,0.00,,RA,0.00,VWS V14.01,2013-10-08 02:00:00,
2013-10-07 21:03:00,56.8,49.3,29.95,North,10,0.0,0.0,76,0.00,,CLR,0.00,VWS V14.01,2013-10-08 02:03:00,
2013-10-07 21:08:00,56.8,49.3,29.95,North,10,0.0,0.0,76,0.00,,CLR,0.00,VWS V14.01,2013-10-08 02:08:00,
2013-10-07 21:13:00,56.8,49.3,29.95,North,10,0.0,0.0,76,0.00,,CLR,0.00,VWS V14.01,2013-10-08 02:13:00,
2013-10-07 21:18:00,56.7,49.2,29.95,North,10,0.0,0.0,76,0.00,,CLR,0.00,VWS V14.01,2013-10-08 02:18:00,
2013-10-07 21:23:00,56.5,49.4,29.95,North,10,0.0,0.0,77,0.00,,CLR,0.00,VWS V14.01,2013-10-08 02:23:00,
2013-10-07 21:28:00,56.3,48.8,29.95,North,10,0.0,0.0,76,0.00,,CLR,0.00,VWS V14.01,2013-10-08 02:28:00,
2013-10-07 21:30:00,56.3,48.8,29.95,North,10,0.0,0.0,76,0.00,,RA,0.00,VWS V14.01,2013-10-08 02:30:00,
2013-10-07 21:33:00,56.1,48.7,29.96,North,10,0.0,0.0,76,0.00,,CLR,0.00,VWS V14.01,2013-10-08 02:33:00,
2013-10-07 21:38:00,55.8,48.4,29.96,North,10,0.0,0.0,76,0.00,,CLR,0.00,VWS V14.01,2013-10-08 02:38:00,
2013-10-07 21:43:00,55.6,48.9,29.96,North,10,0.0,0.0,78,0.00,,CLR,0.00,VWS V14.01,2013-10-08 02:43:00,
2013-10-07 21:49:00,55.5,48.8,29.96,North,10,0.0,0.0,78,0.00,,CLR,0.00,VWS V14.01,2013-10-08 02:49:00,
2013-10-07 21:54:00,55.4,48.7,29.96,North,10,0.0,0.0,78,0.00,,CLR,0.00,VWS V14.01,2013-10-08 02:54:00,
2013-10-07 21:59:00,55.3,48.9,29.96,North,10,0.0,0.0,79,0.00,,CLR,0.00,VWS V14.01,2013-10-08 02:59:00,
2013-10-07 22:00:00,55.3,48.9,29.96,North,10,0.0,0.0,79,0.00,,RA,0.00,VWS V14.01,2013-10-08 03:00:00,
2013-10-07 22:04:00,55.2,48.5,29.96,North,10,0.0,0.0,78,0.00,,CLR,0.00,VWS V14.01,2013-10-08 03:04:00,
2013-10-07 22:09:00,55.0,48.3,29.96,North,10,0.0,0.0,78,0.00,,CLR,0.00,VWS V14.01,2013-10-08 03:09:00,
2013-10-07 22:14:00,54.9,48.5,29.97,North,10,0.0,0.0,79,0.00,,CLR,0.00,VWS V14.01,2013-10-08 03:14:00,
2013-10-07 22:19:00,54.7,48.3,29.97,North,10,0.0,0.0,79,0.00,,CLR,0.00,VWS V14.01,2013-10-08 03:19:00,
2013-10-07 22:24:00,54.7,48.7,29.96,North,10,0.0,0.0,80,0.00,,CLR,0.00,VWS V14.01,2013-10-08 03:24:00,
2013-10-07 22:29:00,54.7,48.7,29.96,North,10,0.0,0.0,80,0.00,,CLR,0.00,VWS V14.01,2013-10-08 03:29:00,
2013-10-07 22:30:00,54.7,48.7,29.97,North,10,0.0,0.0,80,0.00,,RA,0.00,VWS V14.01,2013-10-08 03:30:00,
2013-10-07 22:34:00,54.6,48.6,29.97,North,10,0.0,0.0,80,0.00,,CLR,0.00,VWS V14.01,2013-10-08 03:34:00,
2013-10-07 22:39:00,54.7,49.0,29.96,North,10,0.0,0.0,81,0.00,,CLR,0.00,VWS V14.01,2013-10-08 03:39:00,
2013-10-07 22:45:00,54.7,48.7,29.96,North,10,0.0,0.0,80,0.00,,CLR,0.00,VWS V14.01,2013-10-08 03:45:00,
2013-10-07 22:50:00,54.6,48.9,29.97,North,10,0.0,0.0,81,0.00,,CLR,0.00,VWS V14.01,2013-10-08 03:50:00,
2013-10-07 22:55:00,54.5,48.8,29.96,North,10,0.0,0.0,81,0.00,,CLR,0.00,VWS V14.01,2013-10-08 03:55:00,
2013-10-07 23:00:00,54.4,48.7,29.96,North,10,0.0,0.0,81,0.00,,CLR,0.00,VWS V14.01,2013-10-08 04:00:00,
2013-10-07 23:01:00,54.4,48.7,29.96,North,10,0.0,0.0,81,0.00,,CLR,0.00,VWS V14.01,2013-10-08 04:01:00,
2013-10-07 23:02:00,54.3,48.6,29.96,North,10,0.0,0.0,81,0.00,,CLR,0.00,VWS V14.01,2013-10-08 04:02:00,
2013-10-07 23:03:00,54.3,48.6,29.96,North,10,0.0,0.0,81,0.00,,CLR,0.00,VWS V14.01,2013-10-08 04:03:00,
2013-10-07 23:08:00,54.2,48.5,29.96,North,10,0.0,0.0,81,0.00,,CLR,0.00,VWS V14.01,2013-10-08 04:08:00,
2013-10-07 23:13:00,54.2,48.8,29.96,North,10,0.0,0.0,82,0.00,,CLR,0.00,VWS V14.01,2013-10-08 04:13:00,
2013-10-07 23:18:00,54.2,49.2,29.96,North,10,0.0,0.0,83,0.00,,CLR,0.00,VWS V14.01,2013-10-08 04:18:00,
2013-10-07 23:24:00,54.2,49.2,29.97,North,10,0.0,0.0,83,0.00,,CLR,0.00,VWS V14.01,2013-10-08 04:24:00,
2013-10-07 23:29:00,54.1,49.1,29.97,North,10,0.0,0.0,83,0.00,,CLR,0.00,VWS V14.01,2013-10-08 04:29:00,
2013-10-07 23:30:00,54.1,49.1,29.97,North,10,0.0,0.0,83,0.00,,RA,0.00,VWS V14.01,2013-10-08 04:30:00,
2013-10-07 23:34:00,54.0,49.3,29.97,North,10,0.0,0.0,84,0.00,,CLR,0.00,VWS V14.01,2013-10-08 04:34:00,
2013-10-07 23:39:00,53.9,49.2,29.97,North,10,0.0,0.0,84,0.00,,CLR,0.00,VWS V14.01,2013-10-08 04:39:00,
2013-10-07 23:44:00,53.8,49.1,29.97,North,10,0.0,0.0,84,0.00,,CLR,0.00,VWS V14.01,2013-10-08 04:44:00,
2013-10-07 23:49:00,53.7,49.3,29.97,North,10,0.0,0.0,85,0.00,,CLR,0.00,VWS V14.01,2013-10-08 04:49:00,
2013-10-07 23:54:00,53.6,49.2,29.97,North,10,0.0,0.0,85,0.00,,CLR,0.00,VWS V14.01,2013-10-08 04:54:00,
2013-10-07 23:59:00,53.5,49.4,29.97,North,10,0.0,0.0,86,0.00,,CLR,0.00,VWS V14.01,2013-10-08 04:59:00,